Location: Bush Observatory
(40.2653°N, 94.3194°W)
Time: 02:24:30
(UTC-05:00)

Daily predictions for brighter satellites

Satellite Brightness Start Highest point End
(mag) Time Altitude Azimuth Time Altitude Azimuth Time Altitude Azimuth
CZ-4B R/B 3.8 00:03:41 16° NE 00:03:41 16° NE 00:05:12 10° NNE
Cosmos 1048 Rocket 4.5 00:02:38 10° NNW 00:07:49 50° WSW 00:08:41 45° SW
Cosmos 2221 Rocket 4.3 00:04:16 10° NNW 00:08:37 45° W 00:09:02 44° WSW
Cosmos 158 Rocket 3.8 00:04:40 10° NNW 00:09:57 88° ENE 00:10:27 74° SSE
NOSS 3-4 (A) 4.4 00:10:42 31° ESE 00:10:42 31° ESE 00:15:48 10° NE
NOSS 3-4 (C) 4.4 00:10:49 31° ESE 00:10:49 31° ESE 00:15:53 10° NE
NOSS 2-3 (D) 4.5 00:08:31 28° WSW 00:11:00 58° NW 00:16:36 10° NNE
Cosmos 2074 Rocket 3.9 00:10:28 55° S 00:12:00 83° E 00:18:20 10° N
Cosmos 389 Rocket 3.6 00:09:39 10° NNW 00:12:16 41° NW 00:12:16 41° NW
Cosmos 2237 Rocket 4.1 00:14:54 10° WNW 00:18:28 17° W 00:20:07 15° WSW
Cosmos 2327 Rocket 4.5 00:19:21 53° SSW 00:21:00 86° W 00:27:28 10° N
Cosmos 1892 3.7 00:25:00 42° NNE 00:25:00 42° NNE 00:27:39 10° NNE
H-2A R/B 3.3 00:25:06 10° NNE 00:28:27 44° ENE 00:28:27 44° ENE
Cosmos 1932 4.4 00:26:02 10° NW 00:32:25 71° WSW 00:33:28 60° S
Cosmos 44 3.5 00:33:29 68° SW 00:34:10 81° WNW 00:39:40 10° NNE
BREEZE-M DEB (TANK) 3.9 00:36:45 26° N 00:36:45 26° N 00:40:09 10° NE
Cosmos 1689 Rocket 4.3 00:41:10 27° NNE 00:41:10 27° NNE 00:42:57 10° N
Cosmos 1825 4.4 00:41:16 18° ENE 00:41:16 18° ENE 00:42:50 10° NE
Meteor 2-10 Rocket 3.6 00:39:23 10° NNW 00:45:04 79° W 00:45:39 70° SSW
Cosmos 2154 Rocket 3.9 00:44:36 63° SSE 00:45:32 74° E 00:51:49 10° N
Cosmos 1733 Rocket 3.3 00:46:56 67° NNW 00:46:56 67° NNW 00:50:58 10° N
ATLAS 3B R/B 3.7 00:41:32 10° NW 00:47:12 28° WSW 00:47:56 28° WSW
CZ-3 Stage 3 4.1 00:10:22 10° W 00:51:13 51° SSW 00:52:55 46° SSE
Cosmos 2263 Rocket 2.7 00:54:57 46° E 00:54:57 46° E 01:00:06 10° NE
Cosmos 1378 Rocket 4.3 00:54:24 10° N 00:58:01 46° NE 00:58:01 46° NE
BREEZE-M DEB (TANK) 2.9 00:52:15 10° WNW 00:59:04 60° NNE 00:59:04 60° NNE
Sich 1 Rocket 3.9 01:03:18 67° N 01:03:18 67° N 01:07:16 10° N
CZ-4C R/B 2.8 00:56:14 10° NW 01:03:25 90° N 01:05:36 52° SSE
USA 238 DEB 4.0 00:58:32 10° NW 01:05:14 48° WSW 01:05:55 47° SW
USA 238 4.0 00:58:38 10° NW 01:05:20 49° WSW 01:06:02 47° SW
Cosmos 1238 Rocket 4.3 01:03:10 10° N 01:05:18 31° N 01:05:18 31° N
Meteor 1-10 Rocket 4.4 01:04:14 10° NNW 01:10:05 61° W 01:10:39 58° WSW
ALOS 2 3.4 01:11:54 45° WNW 01:11:54 45° WNW 01:15:25 10° NNW
Geosat 4.4 01:07:52 10° NE 01:12:14 51° E 01:12:14 51° E
CZ-2C R/B 2.9 01:07:59 10° NNE 01:12:53 53° E 01:12:53 53° E
SL-16 R/B 4.3 01:11:41 10° WNW 01:14:07 13° W 01:14:25 13° W
SeaSat 1 3.2 01:20:10 40° W 01:20:10 40° W 01:24:08 10° NW
Cosmos 962 Rocket 4.3 01:18:42 66° SW 01:19:31 78° W 01:25:40 10° N
MOS 1-B Rocket 3.7 01:18:55 70° SE 01:19:32 80° ENE 01:25:10 10° NNW
ASTEX 1 4.2 01:18:24 10° N 01:22:57 39° WNW 01:23:08 39° W
Cosmos 2341 Rocket 4.0 01:22:33 60° SW 01:23:39 72° W 01:30:02 10° N
Cosmos 921 Rocket 4.2 01:25:39 33° WNW 01:25:39 33° WNW 01:29:15 10° N
SL-8 Rocket 4.0 01:25:14 62° SE 01:26:08 72° E 01:32:26 10° NNE
Cosmos 1782 Rocket 4.0 01:28:14 60° NNE 01:28:14 60° NNE 01:31:53 10° N
Cosmos 909 Rocket 4.3 01:28:46 51° SE 01:29:22 53° ESE 01:36:18 10° NE
Cosmos 1943 3.3 01:29:29 10° NNW 01:34:59 60° WSW 01:34:59 60° WSW
Okean 2 Rocket 3.4 01:36:11 65° NNE 01:36:11 65° NNE 01:40:04 10° N
CZ-4B R/B 4.0 01:37:27 16° NW 01:37:27 16° NW 01:38:27 10° NW
NOSS 3-2 (C) 3.9 01:31:30 10° NW 01:39:05 81° WSW 01:41:26 51° SSE
Cosmos 1624 Rocket 4.2 01:40:34 60° E 01:40:34 60° E 01:45:34 10° NNE
Cosmos 2218 Rocket 3.9 01:41:06 65° SSE 01:42:03 79° E 01:48:25 10° N
Cosmos 1408 4.0 01:45:34 36° NNW 01:45:34 36° NNW 01:48:05 10° N
Cosmos 1606 4.4 01:41:11 10° NNW 01:43:26 28° NW 01:43:26 28° NW
Cosmos 1975 Rocket 3.6 01:45:29 10° NNW 01:49:00 52° NW 01:49:00 52° NW
Cosmos 2366 rocket 3.8 01:50:30 66° SSE 01:51:24 81° E 01:57:38 10° N
Okean 3 4.4 01:50:29 10° NNW 01:53:44 41° NW 01:53:44 41° NW
Cosmos 1867 3.7 01:49:42 10° NW 01:54:42 59° W 01:54:42 59° W
NOSS 3-2 (A) 4.2 01:52:37 10° NW 01:59:55 52° WSW 02:01:07 48° SW
NOSS 3-4 (A) 4.2 01:58:07 31° WSW 02:00:48 48° NW 02:07:11 10° NNE
NOSS 3-4 (C) 4.2 01:58:13 31° WSW 02:00:53 48° NW 02:07:17 10° NNE
Cosmos 1536 Rocket 4.1 01:57:33 10° N 02:01:43 50° ENE 02:01:43 50° ENE
Cosmos 1452 Rocket 4.4 02:02:08 36° ESE 02:02:20 36° E 02:07:07 10° NE
CZ-2C R/B 3.1 02:03:48 70° SSW 02:04:19 76° WSW 02:09:54 10° NNW
RESURS DK-1 3.3 02:07:12 42° NW 02:07:12 42° NW 02:10:48 10° NNE
Cosmos 864 Rocket 4.4 02:09:10 62° SSW 02:10:12 77° W 02:16:22 10° N
Cosmos 1242 Rocket 4.0 02:10:39 10° N 02:12:47 35° NNW 02:12:47 35° NNW
Cosmos 1825 4.2 02:16:12 20° NW 02:16:12 20° NW 02:18:25 10° NNW
Cosmos 1727 Rocket 3.9 02:10:28 10° N 02:16:41 78° W 02:17:47 61° SSW
BREEZE-M DEB (TANK) 3.7 02:05:46 10° WNW 02:17:33 68° SW 02:18:01 64° S
Abrixas rocket 4.3 02:18:28 27° NNW 02:18:32 27° NNW 02:21:28 10° NE
Meteor 1-14 Rocket 4.3 02:18:06 61° SW 02:19:01 73° W 02:24:54 10° N
Cosmos 1190 Rocket 3.8 02:21:46 10° NNW 02:26:59 77° WSW 02:27:16 75° SW
Cosmos 1844 Rocket 2.7 02:33:05 58° SSE 02:34:00 68° ESE 02:39:39 10° NNE
Okean 1 Rocket 3.5 02:34:20 52° ESE 02:34:33 53° E 02:38:55 10° NNE
Cosmos 1812 3.1 02:31:28 10° N 02:34:57 62° NE 02:34:57 62° NE
Cosmos 2151 Rocket 4.0 02:35:34 50° WNW 02:35:34 50° WNW 02:39:45 10° N
Cosmos 407 Rocket 3.3 02:33:28 10° NNW 02:38:39 76° WSW 02:39:08 69° SSW
Cosmos 2056 Rocket 4.1 02:37:52 40° W 02:38:44 44° WNW 02:43:44 10° N
Cosmos 2263 Rocket 3.8 02:36:37 21° W 02:38:48 26° NW 02:43:32 10° N
Meteor 1-18 Rocket 4.2 02:36:42 10° NNW 02:42:23 72° W 02:43:28 57° SSW
Meteor 1-20 Rocket 4.2 02:42:52 57° SSW 02:44:10 88° W 02:49:58 10° N
Okean 1-7 Rocket 3.9 02:40:28 10° N 02:45:00 61° E 02:45:46 52° SE
PSLV R/B 3.4 02:41:11 10° N 02:45:21 80° WNW 02:45:21 80° WNW
NOSS 2-2 (E) 3.6 02:46:34 65° ESE 02:46:34 65° ESE 02:51:19 10° NE
Cosmos 489 Rocket 4.5 02:41:37 10° NNW 02:47:54 78° ENE 02:50:45 34° SSE
JB-3 4.3 02:46:37 10° N 02:50:15 77° NNW 02:50:15 77° NNW
CZ-4C R/B 4.3 02:46:29 10° WNW 02:50:45 19° WSW 02:50:45 19° WSW
Cosmos 676 Rocket 3.8 02:46:25 10° NNW 02:51:37 78° WSW 02:52:27 61° S
Gbstr 26 Del rocket 3.1 02:51:47 59° NW 02:51:59 60° NW 02:55:46 10° NE
ATLAS 5 CENTAUR R/B 3.5 02:46:20 10° NNW 02:52:01 43° NE 02:58:05 10° ESE
CZ-2C R/B 4.4 02:49:23 10° NNW 02:52:55 19° WNW 02:54:24 17° W
Cosmos 1000 Rocket 4.4 02:46:46 10° N 02:52:56 89° E 02:55:06 44° S
Iridium 4 Rocket 3.7 02:48:49 10° NNW 02:53:34 53° W 02:54:06 50° WSW
Cosmos 1844 3.7 02:53:33 52° S 02:54:57 75° ESE 03:00:43 10° NNE
SL-27 R/B 3.8 02:52:01 10° NNW 02:54:18 32° NW 02:54:18 32° NW
Cosmos 2278 Rocket 2.4 03:04:33 42° SSE 03:06:18 61° ESE 03:11:54 10° NNE
USA 234 3.7 03:01:09 10° ESE 03:07:34 64° NE 03:14:01 10° NW
SL-24 DEB 4.1 03:03:24 10° N 03:08:05 81° W 03:08:55 60° SSW
Meteor 1-11 Rocket 4.0 03:06:16 38° S 03:08:35 72° E 03:14:33 10° NNE
Cosmos 1809 Rocket 4.4 03:06:55 44° SSW 03:09:02 82° W 03:15:14 10° N
GP-B 3.0 03:05:30 10° N 03:09:58 84° W 03:10:39 63° SSW
CENTAUR R/B 3.0 03:02:34 10° NW 03:10:27 75° WSW 03:18:10 12° SSE
Meteor 1-13 Rocket 4.2 03:05:55 10° N 03:11:40 88° ENE 03:14:13 36° S
Cosmos 1605 Rocket 4.2 03:12:35 30° SSE 03:15:40 65° E 03:21:54 10° NNE
Cosmos 1954 Rocket 4.0 03:10:40 10° NNW 03:15:46 61° WSW 03:16:51 49° SSW
Cosmos 1821 Rocket 4.0 03:14:15 40° SSW 03:16:42 74° W 03:23:07 10° N
COSMOS 2406 3.9 03:11:38 10° NW 03:16:48 35° WSW 03:17:10 35° WSW
BREEZE-M TANK 4.0 03:14:26 10° WNW 03:19:21 17° ESE 03:20:10 10° ESE
Meteor 2-21 4.4 03:17:10 41° SSW 03:19:20 69° W 03:25:27 10° N
Meteor 2-16 Rocket 4.4 03:17:22 35° S 03:20:08 81° E 03:26:19 10° N
Cosmos 1544 Rocket 4.4 03:19:55 30° SE 03:21:35 45° E 03:25:47 10° NNE
Cosmos 2123 Rocket 4.0 03:15:36 10° N 03:21:59 84° E 03:25:43 27° S
Cosmos 1400 Rocket 3.5 03:21:17 37° SE 03:22:15 47° E 03:26:03 10° NNE
Okean 1 4.2 03:18:44 10° NNW 03:22:02 34° W 03:22:02 34° W
Cosmos 1300 Rocket 4.3 03:22:51 36° W 03:23:15 36° WNW 03:27:20 10° N
CBERS 1 LM4 rocket 4.4 03:18:24 10° NNE 03:23:15 70° ESE 03:24:54 40° S
Cosmos 2082 Rocket 3.8 03:20:16 10° N 03:25:28 34° ENE 03:30:37 10° ESE
Cosmos 1602 3.6 03:27:55 62° WSW 03:28:17 67° W 03:32:07 10° N
SL-16 R/B 3.5 03:24:01 10° SE 03:29:55 47° ENE 03:35:49 10° N
NPP 3.8 03:28:10 10° N 03:33:28 59° WNW 03:35:31 36° SW
Cosmos 1023 Rocket 4.4 03:29:42 10° NNW 03:34:44 62° WSW 03:36:36 37° S
Cosmos 1461 3.5 03:33:54 39° WSW 03:35:22 57° NW 03:39:55 10° NNE
USA 161 1.9 03:39:47 52° ESE 03:40:13 60° ENE 03:43:09 10° N
CZ-2D R/B 3.0 03:39:33 10° NNE 03:44:48 45° E 03:48:53 16° SSE
ERS-2 2.6 03:41:21 10° N 03:44:55 45° WNW 03:45:34 41° WSW
ARIANE 5 R/B 2.8 03:40:06 10° NNE 03:45:03 61° E 03:48:01 24° S
Meteor 2-4 Rocket 3.5 03:39:41 10° N 03:45:05 89° ENE 03:48:47 21° S
Cosmos 1892 Rocket 3.4 03:42:44 10° N 03:47:05 90° NNE 03:49:17 29° S
Cosmos 1315 Rocket 3.0 03:51:55 29° S 03:53:50 67° E 03:57:50 10° NNE
Cosmos 1356 3.5 03:53:28 47° SW 03:54:14 62° W 03:57:46 10° N
SL-08 R/B 4.1 03:53:07 31° SW 03:54:21 36° W 03:58:51 10° NNW
Cosmos 1140 Rocket 4.0 03:52:14 10° NW 03:56:57 38° WSW 03:58:37 30° SW
Cosmos 1459 Rocket 4.5 03:55:16 12° S 04:00:59 60° E 04:07:09 10° NNE
Cosmos 1833 Rocket 3.6 03:55:41 10° NNW 04:01:08 50° ENE 04:06:35 10° SE
Cosmos 1331 Rocket 4.3 03:58:40 21° S 04:02:06 61° ESE 04:07:14 10° NNE
Cosmos 1802 Rocket 4.5 04:02:31 10° S 04:08:30 57° E 04:14:29 10° NNE
UNKNOWN OBJECT B 3.5 04:07:45 10° NNE 04:11:47 53° E 04:14:57 15° S
Cosmos 1975 3.6 04:10:40 14° SSE 04:13:57 49° E 04:17:49 10° NNE
COSMOS 2487 4.2 04:11:30 10° NW 04:13:44 19° W 04:13:44 19° W
Cosmos 2100 Rocket 4.1 04:09:32 14° S 04:14:59 82° E 04:21:21 10° N
Resurs 1-4 Rocket 2.1 04:09:51 10° NNE 04:15:11 86° ESE 04:19:19 17° SSW
Cosmos 1602 Rocket 3.9 04:12:22 10° N 04:16:42 66° E 04:21:02 10° SSE
ADEOS 4.3 04:13:19 10° N 04:18:10 39° WNW 04:21:12 20° SW
Cosmos 1633 4.0 04:20:18 20° W 04:21:18 23° WNW 04:24:15 10° NNW
Cosmos 1536 4.3 04:20:02 19° WSW 04:21:25 23° WNW 04:24:42 10° NNW
Cosmos 1025 Rocket 4.3 04:18:18 10° NW 04:21:43 23° W 04:22:59 20° WSW
NOSS 5 (C) 4.5 04:22:18 28° WSW 04:23:46 57° NW 04:26:50 10° NNE
EO 1 Del DPAF 3.4 04:27:27 16° S 04:30:25 52° W 04:34:15 10° NNW
Okean 2 4.1 04:27:20 10° NNW 04:31:04 34° W 04:33:22 19° SW
Cosmos 1626 Rocket 3.5 04:28:49 10° N 04:33:13 81° W 04:37:37 10° S
Cosmos 1455 Rocket 3.8 04:30:38 20° SW 04:33:15 38° WNW 04:37:26 10° N
Cosmos 2369 Rocket 4.3 04:31:06 10° SSE 04:35:19 22° E 04:39:32 10° NE
ATLAS 5 CENTAUR R/B 3.0 04:31:12 10° NW 04:36:44 37° WSW 04:42:34 10° S
Okean O Rocket 2.1 04:33:17 10° NNE 04:37:35 57° E 04:41:50 10° S
PSLV R/B 3.8 04:36:56 21° SW 04:38:51 43° SSE 04:42:05 10° E
Cosmos 1302 Rocket 4.1 04:37:32 12° SSW 04:42:24 83° ESE 04:47:40 10° NNE
MTI 4.1 04:43:20 10° S 04:46:28 48° W 04:49:41 10° NNW
Atlas Centaur 2 4.4 04:40:34 11° SSW 04:46:31 24° SSE 04:52:57 10° ESE
UNK 4.4 04:46:10 10° SSW 04:50:18 36° W 04:54:36 10° NNW
DNEPR-1 R/B 3.8 04:44:55 10° NNW 04:50:29 85° WSW 04:55:03 10° SSE
USA 234 3.7 04:44:51 10° SSE 04:50:46 36° SW 04:56:43 10° WNW
Cosmos 2278 Rocket 3.9 04:46:38 10° W 04:50:49 21° NW 04:55:03 10° N
Timation 1 Rocket 4.4 04:48:17 11° SSW 04:54:00 79° WNW 05:00:03 10° NNE
Cosmos 2061 Rocket 4.3 04:48:53 10° SSW 04:55:00 53° W 05:01:16 10° N
PAYLOAD B 4.5 04:49:45 10° NNE 04:55:21 73° ESE 05:00:57 10° S
BREEZE-M DEB 4.2 04:55:15 16° SSW 04:56:55 48° SE 04:59:52 10° ENE
CENTAUR R/B 4.5 04:55:54 10° WNW 05:00:10 15° WSW 05:04:31 10° SW
Cosmos 1606 Rocket 4.1 05:02:32 10° S 05:06:53 63° E 05:11:12 10° NNE
Cosmos 2082 Rocket 2.9 05:04:23 10° NW 05:09:30 34° WSW 05:14:34 10° SSW
CZ-4B R/B 3.3 05:04:31 10° NNE 05:10:14 87° WNW 05:15:52 10° SSW
Cosmos 2016 Rocket 4.2 05:04:54 10° SSW 05:11:03 54° W 05:17:10 10° N
SL-16 R/B 3.5 05:08:31 10° SSW 05:13:42 27° W 05:18:54 10° NW
NAVSTAR 52 R/B(PAM-D 3.7 05:11:59 11° WSW 05:13:42 40° SSE 05:15:58 10° E
Cosmos 1666 4.5 05:11:47 10° SSE 05:15:18 33° E 05:18:50 10° NNE
ERBS 3.9 05:12:06 10° NNW 05:15:24 42° NE 05:18:41 10° ESE
NOSS 8 (F) 4.5 05:14:49 10° SW 05:18:18 82° NW 05:21:59 10° NNE
Cosmos 1953 Rocket 3.8 05:15:04 10° N 05:19:27 75° E 05:23:46 10° SSE
Cosmos 1486 Rocket 4.5 05:14:37 10° NNW 05:19:38 42° WSW 05:24:37 10° S
Cosmos 1500 3.8 05:16:33 10° SSW 05:20:15 42° W 05:23:58 10° N
Cosmos 1515 4.3 05:17:01 10° NNW 05:20:33 37° W 05:24:05 10° SSW
Cosmos 2233 Rocket 4.3 05:15:14 10° S 05:21:27 75° E 05:27:38 10° N
CZ-3B DEB 4.4 05:09:11 10° NW 05:36:05 84° SW 05:44:05 10° SE
